[[{"header":{"parameterUnit":"m.s-1","parameterCategory":1,"la1":30.2991,"la2":30.254,"lo1":-89.0895,"lo2":-89.0444,"dy":0.0017,"dx":0.0017,"nx":28,"ny":28,"refTime":"2023-09-02T09:00:00:Z","depth":0,"parameterNumber":2,"parameterNumberName":"U-component_of_WINDS"},"data":[0,0,0,0,0,0,0,0,0,0,0,0,0,0,0,0,0,0,0,0,0,0,0,0,0,0,0,0,0,0,0,0,0,0,0,0,0,0,0,0,0,0,0,0,0,0,0,0,0,0,0,0,0,0,0,0,0,0,1.0676,1.0677,0,1.0785,1.0786,1.0788,1.0822,1.0821,1.0821,1.082,1.0938,1.0941,1.0945,0,0,0,0,0,0,0,0,0,0,0,0,0,1.0503,1.0506,1.0676,1.0677,1.0679,1.0785,1.0786,1.0788,1.0822,1.0821,1.0821,1.082,1.0936,1.0941,1.0945,0,0,0,0,0,0,0,0,0,0,0,0,0,1.0592,1.0507,1.0676,1.0708,1.0712,1.0785,1.0786,1.0788,1.0822,1.0821,1.082,1.082,1.0935,1.094,1.0946,1.0995,0,0,1.0962,1.0964,0,0,0,0,0,0,0,0,1.0587,1.0598,1.0702,1.0706,1.0711,1.0789,1.0768,1.0858,1.0822,1.0781,1.082,1.0819,1.0889,1.0898,1.0921,1.1,1.1005,1.0963,1.0966,1.0968,1.097,0,0,0,0,0,0,0,1.0581,1.0594,1.0719,1.0704,1.0709,1.072,1.0731,1.0786,1.0838,1.0784,1.0787,1.0799,1.0891,1.0915,1.0924,1.1007,1.0962,1.0967,1.0971,1.0973,1.1135,1.1136,0,0,0,0,0,0,1.0568,1.0588,1.0716,1.0722,1.0645,1.0723,1.0736,1.0765,1.0838,1.0848,1.08,1.08,1.0906,1.0917,1.0928,1.0991,1.0968,1.0973,1.0976,1.1134,1.1135,1.1137,0,0,0,0,0,0,1.0564,1.0579,1.0711,1.0656,1.0674,1.0727,1.0759,1.0767,1.0791,1.0849,1.0859,1.0814,1.0906,1.092,1.0978,1.0996,1.0976,1.0981,1.1133,1.1134,1.1136,1.1118,0,0,0,0,0,0,1.0559,1.0577,1.0595,1.0656,1.0677,1.0758,1.076,1.077,1.08,1.0802,1.0865,1.0875,1.0907,1.097,1.0983,1.1003,1.0985,1.1131,1.1134,1.1135,1.1117,1.1119,1.112,0,0,0,0,0,1.0553,1.0587,1.0596,1.0611,1.0699,1.0758,1.077,1.0804,1.0801,1.082,1.0858,1.0873,1.0992,1.0975,1.0991,1.1013,1.113,1.1133,1.1135,1.1117,1.1119,1.112,0,0,0,0,0,0,1.0528,1.0595,1.0606,1.066,1.0703,1.0764,1.0789,1.0805,1.0851,1.0851,1.0893,1.0907,1.0962,1.0993,1.0974,1.1065,1.1062,1.1068,1.1043,1.1045,1.1046,1.1038,1.0989,0,0,0,0,0,1.0528,1.0569,1.0626,1.0669,1.0689,1.0736,1.0763,1.0785,1.0832,1.0851,1.0892,1.0939,1.0987,1.1018,1.1065,1.1122,1.1138,1.1145,1.1147,1.1147,1.1152,1.1186,1.1191,1.1144,1.1144,1.1144,0,0,1.053,1.0572,1.0595,1.0665,1.07,1.0743,1.0751,1.0795,1.0828,1.0858,1.0915,1.0947,1.1002,1.106,1.1088,1.1088,1.1168,1.115,1.1151,1.1155,1.1189,1.1194,1.1197,1.1146,1.1146,1.1145,0,0,1.0556,1.0591,1.063,1.0666,1.072,1.0751,1.076,1.0819,1.0841,1.0898,1.0922,1.0963,1.1044,1.1083,1.1113,1.1155,1.1171,1.1169,1.1177,1.121,1.1214,1.1217,1.1233,1.1238,1.1174,1.1174,1.1174,0,1.0552,1.0615,1.0649,1.0693,1.0724,1.0751,1.0793,1.0827,1.0894,1.0915,1.0914,1.1017,1.1056,1.1124,1.1135,1.1158,1.1172,1.1162,1.121,1.1214,1.1218,1.1233,1.1239,1.1173,1.1173,1.1173,1.1173,0,1.0608,1.0652,1.0678,1.0741,1.0775,1.0817,1.086,1.089,1.091,1.0942,1.1001,1.1049,1.1107,1.1125,1.1145,1.1197,1.1195,1.1201,1.1199,1.1221,1.1237,1.1243,1.1172,1.1172,1.1173,1.1173,0,0,1.062,1.0701,1.071,1.074,1.0802,1.0838,1.0883,1.0938,1.0964,1.101,1.105,1.1118,1.1125,1.1159,1.1185,1.1214,1.1245,1.1217,1.1219,1.1221,1.1307,1.1302,1.1308,1.1256,1.1258,1.1259,1.1302,0,1.0654,1.0733,1.0766,1.083,1.0873,1.09,1.094,1.0983,1.1015,1.1057,1.1092,1.114,1.1145,1.1166,1.1196,1.1235,1.1263,1.1232,1.1296,1.1298,1.1281,1.1316,1.1311,1.1349,1.1308,1.131,1.131,0,1.0704,1.0749,1.0817,1.0875,1.0894,1.0929,1.0983,1.1022,1.1073,1.1094,1.1132,1.1156,1.1207,1.1201,1.1273,1.1251,1.128,1.1303,1.1306,1.1313,1.1305,1.1325,1.1362,1.1368,1.132,1.1319,1.1319,0,1.0707,1.0784,1.0836,1.086,1.0929,1.0953,1.0983,1.1033,1.1064,1.1113,1.1134,1.1188,1.1218,1.126,1.1299,1.1291,1.1368,1.1365,1.1388,1.1387,1.1403,1.1401,1.1446,1.142,1.142,1.142,1.142,0,1.0741,1.0782,1.0838,1.0869,1.0917,1.0955,1.1002,1.1035,1.1079,1.112,1.1148,1.1185,1.1234,1.1279,1.131,1.1365,1.1378,1.1398,1.1406,1.1396,1.1393,1.1415,1.1414,1.1422,1.1421,1.1421,1.1421,0,1.0752,1.0791,1.0849,1.0909,1.0925,1.0958,1.1011,1.1044,1.1076,1.1127,1.1141,1.1194,1.1248,1.129,1.1361,1.1383,1.1441,1.145,1.1423,1.1428,1.1449,1.1447,1.1509,1.152,1.1486,1.1486,1.1487,0,1.0772,1.0804,1.0867,1.0895,1.0925,1.097,1.1002,1.1042,1.1075,1.1136,1.1162,1.1218,1.1264,1.135,1.1396,1.1451,1.1461,1.1479,1.147,1.1459,1.1463,1.1461,1.1465,1.1481,1.1481,1.1481,1.1481,0,1.0803,1.082,1.0864,1.0916,1.0953,1.0996,1.104,1.1062,1.111,1.1146,1.1201,1.1237,1.1309,1.1365,1.1425,1.1459,1.1479,1.1484,1.1492,1.1482,1.1466,1.1476,1.1427,1.1482,1.1482,1.1482,1.1482,1.1482,1.0819,1.085,1.0899,1.0948,1.0985,1.1026,1.106,1.1097,1.1142,1.1203,1.1224,1.1281,1.1334,1.1416,1.145,1.1497,1.1498,1.151,1.1514,1.1516,1.1515,1.1458,1.1508,1.1508,1.1508,1.1508,1.1508,0,1.0853,1.0886,1.093,1.099,1.1029,1.1043,1.1093,1.1125,1.1174,1.122,1.1265,1.1329,1.1384,1.1434,1.1492,1.1519,1.153,1.1533,1.1532,1.154,1.151,1.1497,1.1524,1.1524,1.1524,1.1524,1.1524,1.1524,1.0874,1.0927,1.0951,1.1023,1.1057,1.1111,1.1138,1.1176,1.1214,1.1283,1.1328,1.136,1.1409,1.147,1.1522,1.1535,1.1556,1.1556,1.1573,1.1544,1.1542,1.154,1.1528,1.156,1.156,1.1599,1.1599,1.1599]},{"header":{"parameterUnit":"m.s-1","parameterCategory":1,"la1":30.2991,"la2":30.254,"lo1":-89.0895,"lo2":-89.0444,"dy":0.0017,"dx":0.0017,"nx":28,"ny":28,"refTime":"2023-09-02T09:00:00:Z","depth":0,"parameterNumber":3,"parameterNumberName":"V-component_of_WINDS"},"data":[0,0,0,0,0,0,0,0,0,0,0,0,0,0,0,0,0,0,0,0,0,0,0,0,0,0,0,0,0,0,0,0,0,0,0,0,0,0,0,0,0,0,0,0,0,0,0,0,0,0,0,0,0,0,0,0,0,0,-1.4428,-1.4429,0,-1.4479,-1.4479,-1.448,-1.452,-1.4521,-1.4521,-1.4522,-1.457,-1.4571,-1.4572,0,0,0,0,0,0,0,0,0,0,0,0,0,-1.4365,-1.4366,-1.4428,-1.4429,-1.4429,-1.4479,-1.4479,-1.448,-1.452,-1.4521,-1.4521,-1.4522,-1.4569,-1.4571,-1.4572,0,0,0,0,0,0,0,0,0,0,0,0,0,-1.4402,-1.4367,-1.4428,-1.4455,-1.4458,-1.4478,-1.4479,-1.448,-1.452,-1.4521,-1.4521,-1.4522,-1.4569,-1.457,-1.4572,-1.4567,0,0,-1.4576,-1.4576,0,0,0,0,0,0,0,0,-1.44,-1.4404,-1.4451,-1.4454,-1.4457,-1.4494,-1.4475,-1.4509,-1.452,-1.4497,-1.4522,-1.4522,-1.4544,-1.4547,-1.4555,-1.457,-1.4572,-1.4576,-1.4577,-1.4577,-1.4578,0,0,0,0,0,0,0,-1.4397,-1.4402,-1.4448,-1.4451,-1.4455,-1.4465,-1.4471,-1.4482,-1.4516,-1.4499,-1.4502,-1.4507,-1.4546,-1.4554,-1.4557,-1.4572,-1.4576,-1.4577,-1.4578,-1.4578,-1.4589,-1.4589,0,0,0,0,0,0,-1.4391,-1.44,-1.4446,-1.4449,-1.4429,-1.4466,-1.4472,-1.4481,-1.4516,-1.4522,-1.4507,-1.4509,-1.4551,-1.4555,-1.4558,-1.4558,-1.4577,-1.4579,-1.4579,-1.459,-1.4589,-1.4589,0,0,0,0,0,0,-1.4389,-1.4394,-1.4444,-1.4426,-1.4433,-1.4466,-1.4476,-1.4482,-1.449,-1.4522,-1.4528,-1.4509,-1.4552,-1.4557,-1.4566,-1.456,-1.4579,-1.458,-1.459,-1.459,-1.4589,-1.4556,0,0,0,0,0,0,-1.4387,-1.4394,-1.4392,-1.4425,-1.4434,-1.4451,-1.4476,-1.4483,-1.4493,-1.4496,-1.4526,-1.4531,-1.4553,-1.4564,-1.4567,-1.4563,-1.4581,-1.4591,-1.459,-1.4589,-1.4558,-1.4554,-1.4551,0,0,0,0,0,-1.4385,-1.4379,-1.4392,-1.4397,-1.4433,-1.4451,-1.4455,-1.4481,-1.4492,-1.4492,-1.4513,-1.453,-1.456,-1.4564,-1.4569,-1.4564,-1.4592,-1.459,-1.4589,-1.4559,-1.4555,-1.4551,0,0,0,0,0,0,-1.4343,-1.4384,-1.4398,-1.4404,-1.4424,-1.4457,-1.4457,-1.4475,-1.4491,-1.4494,-1.4524,-1.453,-1.4537,-1.4551,-1.4555,-1.4564,-1.4578,-1.4578,-1.4554,-1.455,-1.4547,-1.4543,-1.4583,0,0,0,0,0,-1.4335,-1.4346,-1.4381,-1.4383,-1.4392,-1.4423,-1.4431,-1.445,-1.4471,-1.448,-1.4501,-1.452,-1.4535,-1.4543,-1.4557,-1.456,-1.4568,-1.4559,-1.4556,-1.4553,-1.4552,-1.4558,-1.4555,-1.4585,-1.4585,-1.4585,0,0,-1.4317,-1.4341,-1.4346,-1.4375,-1.4392,-1.4404,-1.4429,-1.444,-1.4449,-1.4481,-1.4492,-1.4508,-1.4532,-1.4539,-1.4543,-1.4551,-1.4546,-1.4551,-1.4549,-1.455,-1.4556,-1.4553,-1.4551,-1.4584,-1.4584,-1.4584,0,0,-1.4291,-1.431,-1.4314,-1.4332,-1.436,-1.4381,-1.4382,-1.4414,-1.4427,-1.4439,-1.4464,-1.4475,-1.4497,-1.4514,-1.4526,-1.451,-1.4528,-1.4514,-1.4496,-1.4501,-1.4499,-1.4497,-1.4493,-1.4491,-1.4513,-1.4513,-1.4513,0,-1.4265,-1.4285,-1.4314,-1.4324,-1.4337,-1.4369,-1.4374,-1.439,-1.4419,-1.4428,-1.4437,-1.4469,-1.4486,-1.4499,-1.4496,-1.4503,-1.4506,-1.451,-1.4497,-1.4495,-1.4494,-1.4491,-1.4489,-1.4511,-1.4511,-1.4511,-1.4512,0,-1.4253,-1.4266,-1.4266,-1.4297,-1.431,-1.4317,-1.4348,-1.4358,-1.4376,-1.4396,-1.4409,-1.4432,-1.4453,-1.4457,-1.4474,-1.4473,-1.4478,-1.4491,-1.4507,-1.4489,-1.4486,-1.4485,-1.4509,-1.4509,-1.451,-1.451,0,0,-1.42,-1.425,-1.425,-1.4266,-1.4299,-1.431,-1.432,-1.4342,-1.4351,-1.437,-1.438,-1.4401,-1.4415,-1.4428,-1.4447,-1.4451,-1.444,-1.4464,-1.4466,-1.446,-1.4443,-1.4433,-1.4431,-1.4452,-1.4452,-1.4451,-1.4441,0,-1.4181,-1.4202,-1.423,-1.4241,-1.4255,-1.4287,-1.4295,-1.4317,-1.4337,-1.4351,-1.4372,-1.4387,-1.4404,-1.4412,-1.4418,-1.444,-1.4437,-1.4441,-1.4461,-1.4462,-1.4456,-1.4429,-1.4419,-1.4408,-1.444,-1.444,-1.444,0,-1.4161,-1.4183,-1.4196,-1.4232,-1.4238,-1.4246,-1.4271,-1.4284,-1.4309,-1.4324,-1.434,-1.4362,-1.4374,-1.4388,-1.4407,-1.4409,-1.4419,-1.4432,-1.4432,-1.4435,-1.445,-1.4433,-1.4405,-1.4403,-1.4438,-1.4438,-1.4439,0,-1.4125,-1.4156,-1.4169,-1.4181,-1.4222,-1.4228,-1.4245,-1.4272,-1.4284,-1.4305,-1.4314,-1.4336,-1.4348,-1.4364,-1.4391,-1.4398,-1.4407,-1.4423,-1.442,-1.4419,-1.4421,-1.442,-1.4394,-1.4425,-1.4425,-1.4425,-1.4425,0,-1.4101,-1.4108,-1.4154,-1.4162,-1.4171,-1.4204,-1.4212,-1.4232,-1.4256,-1.4269,-1.4297,-1.4308,-1.4342,-1.4358,-1.4379,-1.4392,-1.4397,-1.4409,-1.4414,-1.4407,-1.4406,-1.4415,-1.4416,-1.4425,-1.4425,-1.4425,-1.4425,0,-1.4062,-1.4092,-1.4109,-1.4148,-1.4158,-1.4163,-1.4196,-1.4206,-1.4228,-1.4244,-1.4249,-1.4284,-1.4304,-1.4332,-1.436,-1.4374,-1.4385,-1.4393,-1.4377,-1.438,-1.4376,-1.4377,-1.4356,-1.4356,-1.4385,-1.4385,-1.4385,0,-1.4045,-1.4052,-1.4093,-1.4104,-1.4121,-1.4138,-1.4153,-1.4185,-1.4199,-1.4231,-1.4236,-1.4259,-1.4278,-1.4309,-1.4336,-1.4358,-1.4368,-1.4359,-1.4371,-1.4364,-1.437,-1.4369,-1.4371,-1.4356,-1.4356,-1.4355,-1.4355,0,-1.4014,-1.4029,-1.4049,-1.4075,-1.4092,-1.4113,-1.4136,-1.4143,-1.4181,-1.4194,-1.4216,-1.4232,-1.4262,-1.4284,-1.431,-1.4328,-1.4348,-1.4351,-1.4352,-1.4345,-1.4336,-1.4342,-1.437,-1.4351,-1.4352,-1.4352,-1.4352,-1.4352,-1.3987,-1.3995,-1.4026,-1.4048,-1.4069,-1.409,-1.4102,-1.4127,-1.4146,-1.4174,-1.4192,-1.4213,-1.4241,-1.4279,-1.4296,-1.4313,-1.4321,-1.4322,-1.4322,-1.4322,-1.432,-1.4332,-1.4318,-1.4318,-1.4318,-1.4318,-1.4318,0,-1.3958,-1.398,-1.4,-1.4032,-1.405,-1.4069,-1.4096,-1.4109,-1.4128,-1.4153,-1.4173,-1.4199,-1.4222,-1.4252,-1.4276,-1.4284,-1.4294,-1.429,-1.429,-1.4294,-1.4311,-1.4308,-1.4282,-1.4282,-1.4282,-1.4282,-1.4282,-1.4282,-1.3945,-1.3962,-1.3982,-1.4009,-1.4031,-1.4054,-1.4068,-1.4088,-1.4109,-1.4137,-1.4157,-1.4177,-1.4204,-1.4232,-1.4253,-1.4262,-1.427,-1.4263,-1.4274,-1.4289,-1.4292,-1.4296,-1.4294,-1.4264,-1.4264,-1.4256,-1.4256,-1.4256]}]]